This is the latest recevied weather packets stored in our database for station/object VU3ZAG-WX. If no packets are shown the sender has not sent any weather packets the latest 10 day(s).
| Time | Temp. | Humidity | Pressure | Rain* | Wind** | Luminosity | Snow |
|---|---|---|---|---|---|---|---|
| 1777870118 | 37.78° C | 49% | 1009.8 hPa | - | - | - | - |
| 1777869512 | 37.78° C | 49% | 1009.9 hPa | - | - | - | - |
| 1777868907 | 37.22° C | 49% | 1009.9 hPa | - | - | - | - |
| 1777868302 | 37.22° C | 48% | 1009.9 hPa | - | - | - | - |
| 1777867696 | 37.22° C | 50% | 1009.9 hPa | - | - | - | - |
| 1777867089 | 37.22° C | 53% | 1009.9 hPa | - | - | - | - |
| 1777866482 | 37.22° C | 49% | 1009.9 hPa | - | - | - | - |
| 1777865874 | 37.22° C | 48% | 1009.8 hPa | - | - | - | - |
| 1777865269 | 36.67° C | 49% | 1009.8 hPa | - | - | - | - |
| 1777864662 | 36.11° C | 51% | 1009.7 hPa | - | - | - | - |
| 1777864055 | 35.56° C | 54% | 1009.6 hPa | - | - | - | - |
| 1777863449 | 35° C | 56% | 1009.5 hPa | - | - | - | - |
| 1777862841 | 35.56° C | 55% | 1009.3 hPa | - | - | - | - |
| 1777862236 | 35° C | 54% | 1009.2 hPa | - | - | - | - |
| 1777861630 | 35° C | 57% | 1009.1 hPa | - | - | - | - |
| 1777861024 | 35° C | 56% | 1008.9 hPa | - | - | - | - |
| 1777860419 | 34.44° C | 54% | 1008.8 hPa | - | - | - | - |
| 1777859814 | 34.44° C | 57% | 1008.6 hPa | - | - | - | - |
| 1777859208 | 33.89° C | 60% | 1008.5 hPa | - | - | - | - |
| 1777858604 | 33.89° C | 58% | 1008.4 hPa | - | - | - | - |
| 1777857998 | 33.33° C | 60% | 1008.3 hPa | - | - | - | - |
| 1777857393 | 33.33° C | 61% | 1008.2 hPa | - | - | - | - |
| 1777856788 | 33.33° C | 59% | 1008.1 hPa | - | - | - | - |
| 1777856183 | 33.33° C | 61% | 1008 hPa | - | - | - | - |
| 1777855578 | 32.78° C | 64% | 1007.9 hPa | - | - | - | - |
* Rain since midnight (hover to see other rain measurements)
** Current wind speed in m/s (hover to see current wind gust speed)